When you browse on this site, cookies collect data to enhance your experience and personalize the content and advertising you see.
Visit our Privacy Policy to learn more. By continuing to use the site, you agree to this use of cookies and data.
  • In Netherlands
  • List of Countries
  • For 7 days
  • Water Temperature
  • Satellite Maps
  • Weather Map
  • Weather Widgets
  • user-avatar
    Login

    Hourly Weather Razgrad

    Today, 18 July, Thursday

    Time Temperature Precipitation Wind Pressure Humidity
    00:00 +19°C° 0 mm 1 mps 737 mmHg 70%
    01:00 +19°C° 0 mm 1 mps 737 mmHg 72%
    02:00 +18°C° 0 mm 1 mps 737 mmHg 76%
    03:00 +18°C° 0 mm 1 mps 737 mmHg 78%
    04:00 +16°C° 0 mm 1 mps 737 mmHg 80%
    05:00 +16°C° 0 mm 1 mps 737 mmHg 82%
    06:00 +19°C° 0 mm 1 mps 738 mmHg 77%
    07:00 +19°C° 0 mm 2 mps 738 mmHg 72%
    08:00 +21°C° 0 mm 2 mps 738 mmHg 66%
    09:00 +24°C° 0 mm 2 mps 739 mmHg 61%
    10:00 +25°C° 0 mm 2 mps 739 mmHg 56%
    11:00 +27°C° 0 mm 2 mps 739 mmHg 51%
    12:00 +28°C° 0 mm 2 mps 739 mmHg 48%
    13:00 +28°C° 0 mm 1 mps 739 mmHg 45%
    14:00 +29°C° 0 mm 1 mps 739 mmHg 42%
    15:00 +29°C° 0 mm 1 mps 739 mmHg 42%
    16:00 +29°C° 0 mm 1 mps 739 mmHg 42%
    17:00 +29°C° 0 mm 1 mps 739 mmHg 42%
    18:00 +27°C° 0 mm 1 mps 739 mmHg 49%
    19:00 +25°C° 0 mm 1 mps 739 mmHg 55%
    20:00 +23°C° 0 mm 1 mps 739 mmHg 62%
    21:00 +22°C° 0 mm 1 mps 740 mmHg 64%
    22:00 +21°C° 0 mm 1 mps 740 mmHg 67%
    23:00 +20°C° 0 mm 1 mps 741 mmHg 70%

    Tomorrow, 19 July, Friday

    Time Temperature Precipitation Wind Pressure Humidity
    00:00 +20°C° 0 mm 1 mps 741 mmHg 71%
    01:00 +20°C° 0 mm 1 mps 741 mmHg 72%
    02:00 +19°C° 0 mm 1 mps 741 mmHg 74%
    03:00 +19°C° 0 mm 1 mps 741 mmHg 73%
    04:00 +19°C° 0 mm 1 mps 741 mmHg 73%
    05:00 +18°C° 0 mm 2 mps 741 mmHg 73%
    06:00 +20°C° 0 mm 2 mps 742 mmHg 67%
    07:00 +23°C° 0 mm 2 mps 742 mmHg 62%
    08:00 +25°C° 0 mm 2 mps 742 mmHg 57%
    09:00 +26°C° 0 mm 2 mps 742 mmHg 51%
    10:00 +28°C° 0 mm 2 mps 742 mmHg 46%
    11:00 +29°C° 0 mm 2 mps 742 mmHg 41%
    12:00 +30°C° 0 mm 2 mps 742 mmHg 39%
    13:00 +30°C° 0 mm 2 mps 742 mmHg 37%
    14:00 +31°C° 0 mm 2 mps 742 mmHg 35%
    15:00 +31°C° 0 mm 2 mps 742 mmHg 36%
    16:00 +31°C° 0 mm 2 mps 742 mmHg 36%
    17:00 +31°C° 0 mm 2 mps 742 mmHg 37%
    18:00 +28°C° 0 mm 2 mps 742 mmHg 45%
    19:00 +26°C° 0 mm 3 mps 742 mmHg 53%
    20:00 +22°C° 0 mm 4 mps 742 mmHg 60%
    21:00 +21°C° 0 mm 3 mps 742 mmHg 62%
    22:00 +21°C° 0 mm 3 mps 743 mmHg 64%
    23:00 +20°C° 0 mm 2 mps 743 mmHg 66%

    Day after tomorrow, 20 July, Saturday

    Time Temperature Precipitation Wind Pressure Humidity
    00:00 +19°C° 0 mm 2 mps 743 mmHg 64%
    01:00 +19°C° 0 mm 2 mps 743 mmHg 63%
    02:00 +20°C° 0 mm 1 mps 743 mmHg 61%
    03:00 +19°C° 0 mm 1 mps 743 mmHg 59%
    04:00 +19°C° 0 mm 1 mps 743 mmHg 57%
    05:00 +19°C° 0 mm 1 mps 743 mmHg 55%
    06:00 +21°C° 0 mm 1 mps 743 mmHg 51%
    07:00 +23°C° 0 mm 1 mps 744 mmHg 48%
    08:00 +25°C° 0 mm 1 mps 744 mmHg 45%
    09:00 +27°C° 0 mm 1 mps 744 mmHg 41%
    10:00 +28°C° 0 mm 1 mps 744 mmHg 38%
    11:00 +30°C° 0 mm 2 mps 744 mmHg 35%
    12:00 +30°C° 0 mm 2 mps 744 mmHg 34%
    13:00 +31°C° 0 mm 2 mps 744 mmHg 34%
    14:00 +32°C° 0 mm 2 mps 744 mmHg 33%
    15:00 +32°C° 0 mm 2 mps 744 mmHg 34%
    16:00 +31°C° 0 mm 2 mps 744 mmHg 34%
    17:00 +31°C° 0 mm 2 mps 743 mmHg 35%
    18:00 +29°C° 0 mm 2 mps 744 mmHg 41%
    19:00 +27°C° 0 mm 2 mps 744 mmHg 48%
    20:00 +24°C° 0 mm 2 mps 744 mmHg 54%
    21:00 +23°C° 0 mm 2 mps 744 mmHg 56%
    22:00 +23°C° 0 mm 2 mps 745 mmHg 58%
    23:00 +21°C° 0 mm 2 mps 745 mmHg 60%

    21 July, Sunday

    Time Temperature Precipitation Wind Pressure Humidity
    00:00 +21°C° 0 mm 1 mps 745 mmHg 61%
    01:00 +21°C° 0 mm 1 mps 745 mmHg 61%
    02:00 +21°C° 0 mm 1 mps 744 mmHg 62%
    03:00 +21°C° 0 mm 1 mps 744 mmHg 61%
    04:00 +20°C° 0 mm 1 mps 744 mmHg 61%
    05:00 +18°C° 0 mm 0 mps 744 mmHg 61%
    06:00 +21°C° 0 mm 0 mps 744 mmHg 57%
    07:00 +23°C° 0 mm 0 mps 745 mmHg 52%
    08:00 +25°C° 0 mm 0 mps 745 mmHg 48%
    09:00 +28°C° 0 mm 1 mps 745 mmHg 44%
    10:00 +30°C° 0 mm 1 mps 745 mmHg 40%
    11:00 +32°C° 0 mm 1 mps 745 mmHg 36%
    12:00 +32°C° 0 mm 1 mps 745 mmHg 36%
    13:00 +32°C° 0 mm 1 mps 745 mmHg 35%
    14:00 +33°C° 0 mm 1 mps 745 mmHg 35%
    15:00 +32°C° 0 mm 1 mps 744 mmHg 36%
    16:00 +32°C° 0 mm 1 mps 744 mmHg 37%
    17:00 +32°C° 0 mm 1 mps 744 mmHg 38%
    18:00 +30°C° 0 mm 1 mps 744 mmHg 42%
    19:00 +28°C° 0 mm 1 mps 744 mmHg 47%
    20:00 +24°C° 0 mm 0 mps 744 mmHg 51%
    21:00 +25°C° 0 mm 1 mps 744 mmHg 53%
    22:00 +24°C° 0 mm 1 mps 744 mmHg 55%
    23:00 +23°C° 0 mm 1 mps 745 mmHg 57%

    22 July, Monday

    Time Temperature Precipitation Wind Pressure Humidity
    00:00 +23°C° 0 mm 1 mps 744 mmHg 59%
    01:00 +22°C° 0 mm 1 mps 744 mmHg 61%
    02:00 +22°C° 0 mm 1 mps 744 mmHg 62%
    03:00 +22°C° 0 mm 1 mps 744 mmHg 63%
    04:00 +22°C° 0 mm 1 mps 744 mmHg 64%
    05:00 +22°C° 0 mm 1 mps 744 mmHg 64%
    06:00 +24°C° 0 mm 1 mps 744 mmHg 60%
    07:00 +26°C° 0 mm 1 mps 744 mmHg 56%
    08:00 +28°C° 0 mm 1 mps 744 mmHg 52%
    09:00 +30°C° 0 mm 1 mps 744 mmHg 48%
    10:00 +31°C° 0 mm 1 mps 744 mmHg 44%
    11:00 +34°C° 0 mm 2 mps 744 mmHg 40%
    12:00 +34°C° 0 mm 2 mps 744 mmHg 38%
    13:00 +34°C° 0 mm 2 mps 743 mmHg 37%
    14:00 +35°C° 0 mm 2 mps 743 mmHg 36%
    15:00 +34°C° 0 mm 2 mps 743 mmHg 39%
    16:00 +32°C° 0 mm 2 mps 742 mmHg 43%
    17:00 +32°C° 0 mm 2 mps 742 mmHg 46%
    18:00 +30°C° 0 mm 2 mps 742 mmHg 50%
    19:00 +29°C° 0 mm 2 mps 742 mmHg 54%
    20:00 +28°C° 0 mm 1 mps 742 mmHg 58%
    21:00 +27°C° 0 mm 1 mps 742 mmHg 60%
    22:00 +26°C° 0 mm 1 mps 742 mmHg 61%
    23:00 +26°C° 0 mm 1 mps 742 mmHg 62%

    23 July, Tuesday

    Time Temperature Precipitation Wind Pressure Humidity
    00:00 +25°C° 0 mm 1 mps 742 mmHg 65%
    01:00 +24°C° 0 mm 1 mps 742 mmHg 68%
    02:00 +23°C° 0 mm 2 mps 742 mmHg 71%
    03:00 +23°C° 0.2 mm 1 mps 741 mmHg 76%
    04:00 +22°C° 0.2 mm 1 mps 741 mmHg 82%
    05:00 +21°C° 0.2 mm 1 mps 741 mmHg 87%
    06:00 +22°C° 0 mm 1 mps 741 mmHg 82%
    07:00 +24°C° 0 mm 1 mps 741 mmHg 78%
    08:00 +25°C° 0 mm 2 mps 742 mmHg 73%
    09:00 +27°C° 0.1 mm 2 mps 742 mmHg 67%
    10:00 +28°C° 0.1 mm 2 mps 742 mmHg 62%
    11:00 +29°C° 0.1 mm 2 mps 742 mmHg 56%
    12:00 +30°C° 0.7 mm 2 mps 741 mmHg 55%
    13:00 +30°C° 0.7 mm 2 mps 741 mmHg 54%
    14:00 +30°C° 0.7 mm 2 mps 741 mmHg 53%
    15:00 +30°C° 0.1 mm 2 mps 741 mmHg 52%
    16:00 +30°C° 0.1 mm 2 mps 740 mmHg 50%
    17:00 +30°C° 0.1 mm 3 mps 740 mmHg 48%
    18:00 +28°C° 0.1 mm 2 mps 740 mmHg 53%
    19:00 +26°C° 0.1 mm 2 mps 740 mmHg 58%
    20:00 +25°C° 0.1 mm 1 mps 740 mmHg 62%
    21:00 +24°C° 0 mm 1 mps 740 mmHg 65%
    22:00 +23°C° 0 mm 1 mps 741 mmHg 68%
    23:00 +22°C° 0 mm 1 mps 741 mmHg 71%
    Show more